Vorticity
nan nan nan nan nan nan nan nan nan nan nan nan nan nan nan nan nan nan nan nan nan nan nan nan nan nan nan nan nan nan nan nan nan nan nan nan nan nan nan nan nan nan nan nan
nan 11 9 10 10 8 4 5 5 8 10 9 4 4 13 10 5 4 5 6 13 20 13 12 11 9 9 10 10 8 9 9 10 11 10 9 11 10 10 13 15 10 11 nan
nan 13 15 15 11 8 12 12 11 8 7 4 8 9 11 9 10 12 10 6 16 12 16 18 12 12 11 10 12 10 9 9 10 10 9 9 12 15 12 10 13 15 15 nan
nan 17 15 13 17 22 21 20 19 18 15 11 12 10 8 21 19 18 20 16 15 14 19 18 16 12 13 13 11 11 10 10 10 11 16 12 10 12 15 14 11 10 10 nan
nan 10 6 11 19 18 21 9 10 17 16 17 20 22 7 4 14 20 28 24 15 11 11 19 20 16 12 14 14 14 14 18 15 10 13 16 13 11 10 10 9 9 11 nan
nan 13 11 4 6 8 10 6 -4 6 7 11 15 14 1 -4 13 10 11 14 16 15 11 6 15 25 19 11 12 14 16 16 17 18 13 11 11 10 11 11 10 9 9 nan
nan 5 6 11 7 11 13 6 4 8 6 7 13 11 7 7 13 13 11 12 11 14 14 12 12 16 16 17 13 11 11 13 11 11 9 10 11 10 11 10 8 9 8 nan
nan 11 8 4 15 16 13 8 9 6 4 8 11 8 10 16 14 13 10 9 15 15 10 12 14 12 10 10 11 13 12 10 11 13 10 9 10 9 9 9 7 8 7 nan
nan 2 8 10 15 10 7 8 6 6 7 14 9 12 13 17 10 11 11 12 13 11 9 12 15 14 11 10 12 11 12 10 11 10 11 11 8 8 8 8 8 8 7 nan
nan 11 5 9 9 7 3 7 6 9 11 12 18 20 19 18 10 9 11 12 11 11 10 12 13 14 12 12 11 10 9 8 8 7 10 12 11 11 11 11 11 10 10 nan
nan 11 12 9 8 15 9 5 16 13 14 13 19 22 19 11 11 12 12 11 12 12 11 11 11 11 11 11 10 8 7 7 8 8 7 8 11 15 18 18 21 20 17 nan
nan 6 13 6 -0 9 11 14 17 19 13 13 19 16 12 11 11 13 12 13 15 12 11 11 11 11 11 11 11 9 8 8 9 9 7 9 9 5 8 16 18 17 19 nan
nan 5 5 13 13 11 13 21 13 13 15 13 13 15 12 11 9 10 11 12 13 14 12 14 14 12 13 13 13 11 10 12 9 10 10 8 8 8 -2 -1 2 3 7 nan
nan 13 10 10 13 16 23 13 8 9 10 13 13 13 11 10 10 10 12 10 9 12 14 12 11 12 15 14 13 11 10 9 11 11 11 12 11 9 8 6 1 -0 2 nan
nan 11 14 14 15 12 20 10 8 6 9 10 13 12 11 10 10 12 11 10 9 9 9 9 11 10 12 12 11 10 11 12 12 11 11 12 11 12 12 11 11 10 4 nan
nan 9 9 5 13 20 12 16 17 10 10 10 11 10 12 12 12 10 12 13 12 10 9 9 9 9 11 12 10 9 10 12 14 12 11 10 11 10 10 9 10 9 8 nan
nan 12 10 11 9 11 10 23 18 15 11 11 10 10 9 9 9 9 10 11 12 12 12 11 10 11 11 11 11 11 10 8 9 11 11 11 11 11 12 11 9 9 9 nan
nan 15 13 14 15 14 23 20 14 13 12 11 10 11 10 10 9 10 10 10 8 8 10 12 13 14 13 12 10 10 12 12 10 11 11 11 11 11 10 11 13 12 9 nan
nan 13 16 16 17 25 27 14 13 14 13 12 11 12 11 11 11 12 9 10 9 8 11 13 11 11 11 13 13 12 12 11 11 10 10 10 11 11 11 10 10 10 11 nan
nan 15 16 14 18 22 14 12 12 11 13 13 12 10 10 10 11 10 10 9 12 12 12 11 9 8 8 10 11 12 11 11 11 12 11 10 10 10 9 10 11 10 10 nan
nan 14 13 13 12 14 15 15 13 13 12 12 12 11 11 10 11 10 10 8 9 12 10 8 9 11 11 11 10 12 11 10 10 10 11 10 10 10 11 10 9 10 11 nan
nan 14 13 13 12 13 15 15 14 14 13 12 10 10 9 8 7 8 11 12 8 10 10 9 12 16 15 11 11 11 12 11 10 10 11 11 10 9 10 10 11 11 10 nan
nan 13 13 13 13 12 13 14 14 14 13 12 11 10 8 8 10 10 9 11 13 11 11 11 13 12 13 9 11 11 11 11 11 11 10 11 11 12 10 9 11 12 10 nan
nan 13 14 13 11 9 11 12 13 12 11 11 11 12 13 9 9 12 12 12 13 10 10 12 11 11 9 12 12 11 10 9 9 10 11 11 11 11 10 11 10 10 10 nan
nan 12 12 12 10 10 10 9 8 8 9 9 9 11 11 11 13 12 10 10 8 9 9 9 10 10 10 10 10 10 10 12 13 11 11 10 10 10 11 12 12 11 11 nan
nan 10 12 13 12 12 9 8 8 10 9 8 10 11 11 13 13 13 14 11 8 9 9 9 8 9 12 12 12 11 11 10 9 10 12 11 11 11 11 10 10 11 13 nan
nan nan nan nan nan nan nan nan nan nan nan nan nan nan nan nan nan nan nan nan nan nan nan nan nan nan nan nan nan nan nan nan nan nan nan nan nan nan nan nan nan nan nan nan
CAPE
0 0 0 0 0 0 0 0 0 13 10 41 11 0 2 0 2 0 0 0 63 434 562 715 634 484 322 210 110 78 62 78 77 65 54 41 22 22 6 17 8 13 18 27
27 0 0 0 0 0 0 0 0 0 0 0 0 0 0 0 0 0 0 0 0 123 407 612 758 630 451 335 123 98 73 61 78 121 102 91 110 106 92 61 50 26 10 0
34 9 0 0 0 0 0 0 0 0 0 0 0 0 0 0 0 0 0 0 0 25 83 503 657 717 641 521 268 113 86 107 100 119 112 105 114 99 71 11 0 0 0 1
51 49 36 0 0 0 15 0 0 0 0 0 0 0 59 94 11 3 0 0 8 65 73 35 555 637 668 597 508 324 236 213 172 129 124 132 49 0 0 0 0 1 1 1
44 28 0 0 1 65 173 133 115 89 125 117 107 60 178 180 183 181 110 78 36 41 79 21 304 598 602 502 562 449 337 256 188 223 0 0 0 0 1 0 1 1 1 1
66 20 1 0 32 7 0 25 84 12 4 12 10 95 168 0 110 1 26 36 41 104 118 72 0 365 516 360 39 0 0 0 0 0 0 0 0 1 1 1 1 1 1 1
110 44 27 3 0 1 0 10 6 11 4 3 12 14 9 1 0 0 0 0 0 0 0 0 0 0 0 0 0 0 0 0 0 0 0 7 6 1 4 2 0 0 1 1
79 50 19 74 41 37 67 0 20 17 3 3 2 20 0 7 1 0 0 0 0 1 0 0 0 0 0 1 1 0 2 0 1 0 0 1 0 1 0 0 0 1 1 2
52 54 87 82 66 85 23 23 5 0 0 4 1 12 2 0 0 0 0 0 0 0 0 0 0 0 0 1 0 1 1 7 2 0 1 1 0 0 1 0 0 2 3 3
37 78 40 4 17 0 0 0 0 0 2 2 8 16 13 0 0 0 0 0 0 0 0 0 0 0 0 1 0 0 0 1 1 1 0 0 0 0 1 0 2 2 4 3
34 62 47 51 27 13 1 0 0 1 17 53 56 5 0 0 0 0 0 0 0 1 1 1 1 1 1 1 0 0 0 1 0 0 0 0 0 0 1 1 0 1 2 3
39 0 3 5 36 19 24 21 47 18 57 0 0 1 0 2 2 2 2 0 0 1 1 1 2 2 2 2 0 0 2 2 1 2 2 1 2 3 7 2 2 3 2 0
8 0 8 13 7 6 13 25 0 0 0 0 0 1 1 3 2 1 1 1 2 2 1 0 0 0 0 0 1 2 1 4 3 3 3 2 2 2 1 2 3 2 1 1
2 6 1 9 22 27 9 1 0 0 0 0 1 1 0 1 0 0 0 0 0 0 0 0 0 0 0 0 0 1 3 3 4 4 3 2 1 2 3 3 2 2 1 0
19 15 33 27 26 8 27 6 0 0 0 1 1 1 1 1 0 0 0 0 0 0 0 0 0 0 0 0 0 0 0 0 0 0 0 0 2 3 4 4 3 1 3 1
0 13 4 0 34 42 7 0 0 0 0 1 1 2 1 1 1 0 0 0 0 0 0 0 0 0 0 0 0 0 0 0 0 0 0 0 0 0 1 1 0 0 0 0
20 4 2 0 0 15 5 0 0 0 0 0 1 0 1 0 0 0 0 0 0 0 0 0 1 1 1 0 0 0 0 0 0 0 0 0 0 0 1 0 0 0 0 0
0 0 0 0 0 0 0 0 0 0 0 0 0 0 0 0 0 0 0 0 0 0 0 0 0 1 0 0 0 0 0 0 0 0 0 0 0 0 0 0 0 0 0 0
0 0 0 0 0 0 0 0 0 0 1 1 0 0 0 0 0 0 0 0 0 0 3 2 6 0 0 0 0 0 0 0 0 0 0 0 0 0 0 0 0 0 0 0
2 2 1 0 0 0 0 1 2 2 2 0 0 0 0 0 0 0 0 0 3 2 0 0 0 0 0 0 0 0 0 0 1 0 0 0 0 0 0 0 0 0 0 0
1 2 1 1 1 1 1 1 0 2 1 0 0 0 0 0 0 0 0 1 0 0 0 0 0 0 0 0 0 0 0 0 0 0 0 0 0 0 0 0 0 0 0 0
4 2 2 1 1 1 0 1 1 0 0 0 0 0 0 0 0 0 0 3 1 0 0 0 0 0 0 0 0 0 0 0 0 0 0 0 0 0 0 0 0 0 0 0
4 2 1 1 1 2 0 0 0 0 0 0 0 2 2 2 3 1 1 1 2 1 2 2 0 0 0 0 0 0 0 0 0 0 0 0 0 0 0 0 0 0 0 0
3 3 3 4 4 4 2 1 0 0 0 0 0 0 1 0 0 2 3 0 0 1 1 1 0 0 0 1 1 0 0 0 0 0 0 0 0 0 0 0 0 0 0 0
6 7 3 4 3 8 5 5 3 2 2 3 3 4 3 3 1 4 2 2 6 1 1 0 0 0 1 1 1 0 0 0 0 0 0 0 0 0 0 0 0 0 0 0
14 14 11 5 7 7 10 6 7 6 4 2 3 3 3 4 3 3 2 1 2 2 4 4 2 1 1 1 0 0 0 0 0 0 0 0 0 0 0 0 0 0 0 0
5 5 7 13 14 7 6 5 6 5 5 4 3 4 3 3 2 2 0 0 1 1 1 0 0 0 1 1 0 0 0 0 0 0 0 0 0 0 0 0 0 0 0 0